Location: Benque
(43.2594°N, 0.9178°E)
Time: 17:40:46
(UTC+00:00)

Cosmos 2237 Rocket - Pass Details

Date: 24 January 2020
Orbit: 837 x 848 km, 71.0° (Epoch: 22 February)

Event Time Altitude Azimuth Distance (km) Brightness Sun altitude
Rises 18:42:11 0° 324° (NW) 3,395 5.7 -19.1°
Reaches altitude 10° 18:44:58 10° 313° (NW) 2,456 5.1 -19.6°
Maximum altitude 18:49:35 27° 257° (WSW) 1,557 4.4 -20.4°
Drops below altitude 10° 18:54:12 10° 202° (SSW) 2,443 4.9 -21.2°
Sets 18:56:58 0° 190° (S) 3,374 5.5 -21.7°
